Location: Nianha
(10.8000°N, 4.6333°W)
Time: 20:17:35
(UTC+00:00)

ASTEX 1 - Pass Details

Date: 14 November 2019
Orbit: 719 x 745 km, 92.7° (Epoch: 26 January)

Event Time Altitude Azimuth Distance (km) Brightness Sun altitude
Rises 05:22:18 0° 182° (S) 3,126 6.9 -12.9°
Reaches altitude 10° 05:24:37 10° 186° (S) 2,208 6.0 -12.3°
Maximum altitude 05:29:23 56° 264° (W) 863 3.5 -11.2°
Drops below altitude 10° 05:34:12 10° 342° (NNW) 2,223 5.6 -10.1°
Sets 05:36:32 0° 347° (NNW) 3,148 6.4 -9.5°
